Weather History for Sanford, ME

Change the Weather History Date:

Thursday, February 21, 2013

  Actual Average Record
Temperature  
Mean Temperature 24 °F -  
Max Temperature 28 °F 33 °F 53 °F (1997)
Min Temperature 19 °F 15 °F 1 °F (2000)
Degree Days  
Heating Degree Days 42    
Moisture  
Dew Point 10 °F    
Average Humidity 53    
Maximum Humidity 74    
Minimum Humidity 40    
Precipitation  
Precipitation 0.00 in - - ()
Sea Level Pressure  
Sea Level Pressure 29.83 in    
Wind  
Wind Speed 14 mph (WNW)    
Max Wind Speed 21 mph    
Max Gust Speed 34 mph    
Visibility 10 miles    
Events      
Averages and records for this station are not official NWS values.
T = Trace of Precipitation, MM = Missing Value Source: NWS Daily Summary

Daily Weather History Graph

Daily Weather History Graph

Search for Another Location

Airport:

Trip Planner

Search our weather history database for the weather conditions in past years. The results will help you decide how hot, cold, wet, or windy it might be!

Date:

Astronomy

Feb. 21, 2013 Rise Set
Actual Time 6:31 AM EST 5:21 PM EST
Civil Twilight 6:02 AM EST 5:50 PM EST
Nautical Twilight 5:29 AM EST 6:23 PM EST
Astronomical Twilight 4:56 AM EST 6:57 PM EST
Moon 1:29 PM EST (2/21) 3:38 AM EST (2/21)
Length of Visible Light 11h 48m
Length of Day
10h 50m
Waxing Gibbous, 83% of the Moon is Illuminated
Feb 21
Waxing Gibbous
Feb 25
Full
Mar 4
Last Quarter
Mar 11
New
Mar 19
First Quarter

Hourly Weather History & Observations

Time (EST) Temp. Windchill Dew Point Humidity Pressure Visibility Wind Dir Wind Speed Gust Speed Precip Events Conditions
12:15 AM 24.8 °F 12.9 °F 10.4 °F 54% 29.69 in 10.0 mi West 13.8 mph 20.7 mph N/A   Clear
12:35 AM 24.8 °F 13.4 °F 14.0 °F 64% 29.68 in 10.0 mi West 12.7 mph 21.9 mph N/A   Clear
12:55 AM 24.8 °F 12.4 °F 8.6 °F 50% 29.68 in 10.0 mi West 15.0 mph 24.2 mph N/A   Clear
1:15 AM 24.8 °F 13.4 °F 12.2 °F 59% 29.68 in 10.0 mi West 12.7 mph 20.7 mph N/A   Clear
1:35 AM 24.8 °F 12.9 °F 12.2 °F 59% 29.68 in 10.0 mi West 13.8 mph 23.0 mph N/A   Clear
1:55 AM 24.8 °F 13.4 °F 10.4 °F 54% 29.68 in 10.0 mi West 12.7 mph 19.6 mph N/A   Clear
2:15 AM 24.8 °F 11.9 °F 14.0 °F 64% 29.67 in 10.0 mi West 16.1 mph 23.0 mph N/A   Clear
2:35 AM 24.8 °F 12.4 °F 10.4 °F 54% 29.67 in 10.0 mi West 15.0 mph 21.9 mph N/A   Clear
2:55 AM 24.8 °F 14.0 °F 14.0 °F 64% 29.68 in 10.0 mi West 11.5 mph 19.6 mph N/A   Clear
3:15 AM 23.0 °F 8.7 °F 10.4 °F 59% 29.67 in 10.0 mi West 18.4 mph 23.0 mph N/A   Clear
3:35 AM 23.0 °F 10.6 °F 12.2 °F 63% 29.68 in 10.0 mi West 13.8 mph 18.4 mph N/A   Clear
3:55 AM 23.0 °F 11.1 °F 10.4 °F 59% 29.68 in 10.0 mi West 12.7 mph 16.1 mph N/A   Clear
4:35 AM 21.2 °F 10.1 °F 12.2 °F 68% 29.68 in 10.0 mi West 10.4 mph 16.1 mph N/A   Clear
4:55 AM 21.2 °F 9.5 °F 8.6 °F 58% 29.69 in 10.0 mi West 11.5 mph - N/A   Clear
5:15 AM 23.0 °F 11.7 °F 12.2 °F 63% 29.70 in 10.0 mi West 11.5 mph - N/A   Partly Cloudy
5:35 AM 23.0 °F 12.4 °F 8.6 °F 54% 29.71 in 10.0 mi West 10.4 mph - N/A   Scattered Clouds
5:55 AM 21.2 °F 9.5 °F 14.0 °F 74% 29.71 in 10.0 mi West 11.5 mph 21.9 mph N/A   Scattered Clouds
6:15 AM 21.2 °F 6.8 °F 10.4 °F 63% 29.71 in 10.0 mi West 17.3 mph 26.5 mph N/A   Scattered Clouds
6:55 AM 21.2 °F 7.8 °F 6.8 °F 54% 29.72 in 10.0 mi West 15.0 mph 20.7 mph N/A   Clear
7:15 AM 21.2 °F 6.4 °F 8.6 °F 58% 29.73 in 10.0 mi West 18.4 mph 24.2 mph N/A   Clear
7:35 AM 21.2 °F 6.0 °F 6.8 °F 54% 29.74 in 10.0 mi WNW 19.6 mph 26.5 mph N/A   Clear
7:56 AM 19.4 °F 4.1 °F 5.0 °F 54% 29.74 in 10.0 mi WNW 18.4 mph 28.8 mph N/A   Clear
8:15 AM 21.2 °F 7.3 °F 6.8 °F 54% 29.75 in 10.0 mi WNW 16.1 mph 28.8 mph N/A   Clear
8:35 AM 21.2 °F 5.6 °F 3.2 °F 46% 29.75 in 10.0 mi West 20.7 mph 34.5 mph N/A   Clear
8:55 AM 21.2 °F 5.6 °F 6.8 °F 54% 29.74 in 10.0 mi WNW 20.7 mph 29.9 mph N/A   Clear
9:15 AM 21.2 °F 8.9 °F 3.2 °F 46% 29.75 in 10.0 mi WNW 12.7 mph 26.5 mph N/A   Clear
9:35 AM 21.2 °F 7.8 °F 6.8 °F 54% 29.76 in 10.0 mi WNW 15.0 mph 19.6 mph N/A   Clear
9:55 AM 23.0 °F 10.6 °F 3.2 °F 43% 29.76 in 10.0 mi WNW 13.8 mph 23.0 mph N/A   Clear
10:15 AM 23.0 °F 10.1 °F 6.8 °F 50% 29.76 in 10.0 mi WNW 15.0 mph 20.7 mph N/A   Clear
10:35 AM 24.8 °F 13.4 °F 3.2 °F 40% 29.76 in 10.0 mi WNW 12.7 mph 25.3 mph N/A   Clear
10:55 AM 24.8 °F 12.9 °F 6.8 °F 46% 29.76 in 10.0 mi NW 13.8 mph 24.2 mph N/A   Clear
11:15 AM 24.8 °F 11.9 °F 6.8 °F 46% 29.76 in 10.0 mi West 16.1 mph 21.9 mph N/A   Partly Cloudy
11:35 AM 26.6 °F 15.7 °F 5.0 °F 40% 29.76 in 10.0 mi WNW 12.7 mph 20.7 mph N/A   Mostly Cloudy
11:55 AM 26.6 °F 15.7 °F 6.8 °F 43% 29.77 in 10.0 mi WNW 12.7 mph 18.4 mph N/A   Overcast
12:15 PM 26.6 °F 18.2 °F 5.0 °F 40% 29.77 in 10.0 mi WNW 8.1 mph - N/A   Overcast
12:35 PM 26.6 °F 15.7 °F 6.8 °F 43% 29.77 in 10.0 mi WNW 12.7 mph 20.7 mph N/A   Mostly Cloudy
12:55 PM 26.6 °F 14.7 °F 8.6 °F 47% 29.77 in 10.0 mi West 15.0 mph 20.7 mph N/A   Mostly Cloudy
1:15 PM 26.6 °F 14.3 °F 6.8 °F 43% 29.78 in 10.0 mi West 16.1 mph 21.9 mph N/A   Mostly Cloudy
1:35 PM 28.4 °F 17.0 °F 8.6 °F 43% 29.78 in 10.0 mi WNW 15.0 mph 19.6 mph N/A   Mostly Cloudy
1:55 PM 28.4 °F 19.1 °F 10.4 °F 47% 29.78 in 10.0 mi WNW 10.4 mph 21.9 mph N/A   Overcast
2:15 PM 26.6 °F 15.2 °F 6.8 °F 43% 29.79 in 10.0 mi WNW 13.8 mph 21.9 mph N/A   Overcast
2:35 PM 26.6 °F 16.8 °F 6.8 °F 43% 29.80 in 10.0 mi WNW 10.4 mph 18.4 mph N/A   Overcast
2:55 PM 28.4 °F 17.5 °F 10.4 °F 47% 29.81 in 10.0 mi WNW 13.8 mph 19.6 mph N/A   Overcast
3:35 PM 28.4 °F 16.2 °F 8.6 °F 43% 29.82 in 10.0 mi WNW 17.3 mph 23.0 mph N/A   Overcast
3:55 PM 28.4 °F 17.5 °F 15.8 °F 59% 29.84 in 10.0 mi NW 13.8 mph 25.3 mph N/A   Overcast
4:15 PM 28.4 °F 16.6 °F 12.2 °F 51% 29.85 in 10.0 mi NW 16.1 mph 24.2 mph N/A   Overcast
4:35 PM 28.4 °F 19.1 °F 10.4 °F 47% 29.87 in 10.0 mi NNW 10.4 mph 24.2 mph N/A   Overcast
5:15 PM 28.4 °F 18.0 °F 8.6 °F 43% 29.90 in 10.0 mi NW 12.7 mph 21.9 mph N/A   Overcast
5:35 PM 26.6 °F 15.2 °F 10.4 °F 51% 29.91 in 10.0 mi NW 13.8 mph 21.9 mph N/A   Overcast
5:55 PM 26.6 °F 16.8 °F 10.4 °F 51% 29.93 in 10.0 mi NW 10.4 mph 18.4 mph N/A   Overcast
6:15 PM 26.6 °F 16.8 °F 8.6 °F 47% 29.94 in 10.0 mi NW 10.4 mph 17.3 mph N/A   Overcast
6:35 PM 26.6 °F 17.5 °F 12.2 °F 55% 29.95 in 10.0 mi NNW 9.2 mph 17.3 mph N/A   Scattered Clouds
6:55 PM 26.6 °F 17.5 °F 8.6 °F 47% 29.97 in 10.0 mi NNW 9.2 mph 17.3 mph N/A   Mostly Cloudy
7:15 PM 26.6 °F 15.2 °F 12.2 °F 55% 29.98 in 10.0 mi NW 13.8 mph 17.3 mph N/A   Overcast
7:35 PM 26.6 °F 15.7 °F 12.2 °F 55% 30.00 in 10.0 mi NW 12.7 mph 18.4 mph N/A   Mostly Cloudy
7:55 PM 26.6 °F 16.8 °F 12.2 °F 55% 30.01 in 10.0 mi NNW 10.4 mph 19.6 mph N/A   Clear
8:15 PM 26.6 °F 17.5 °F 14.0 °F 59% 30.02 in 10.0 mi NW 9.2 mph - N/A   Mostly Cloudy
8:35 PM 26.6 °F 17.5 °F 12.2 °F 55% 30.03 in 10.0 mi NW 9.2 mph - N/A   Partly Cloudy
8:55 PM 26.6 °F 17.5 °F 15.8 °F 64% 30.05 in 10.0 mi NNW 9.2 mph - N/A   Clear
9:15 PM 26.6 °F 14.7 °F 12.2 °F 55% 30.05 in 10.0 mi NNW 15.0 mph 19.6 mph N/A   Clear
9:35 PM 28.4 °F 18.5 °F 15.8 °F 59% 30.06 in 10.0 mi NNW 11.5 mph 17.3 mph N/A   Clear
9:55 PM 26.6 °F 15.2 °F 12.2 °F 55% 30.07 in 10.0 mi NNW 13.8 mph - N/A   Clear
10:15 PM 28.4 °F 19.1 °F 15.8 °F 59% 30.08 in 10.0 mi NNW 10.4 mph 17.3 mph N/A   Clear
10:35 PM 28.4 °F 17.0 °F 12.2 °F 51% 30.09 in 10.0 mi NNW 15.0 mph 20.7 mph N/A   Clear
10:55 PM 26.6 °F 16.8 °F 17.6 °F 69% 30.09 in 10.0 mi NNW 10.4 mph - N/A   Clear
11:15 PM 26.6 °F 15.7 °F 12.2 °F 55% 30.10 in 10.0 mi NNW 12.7 mph 18.4 mph N/A   Clear
11:35 PM 26.6 °F 16.8 °F 17.6 °F 69% 30.13 in 10.0 mi NNW 10.4 mph - N/A   Clear
11:55 PM 26.6 °F 16.8 °F 12.2 °F 55% 30.15 in 10.0 mi NW 10.4 mph 16.1 mph N/A   Clear